Date String (YYYY-MM-DD hh:mm:ss) UTC,Instrument flags,absolute air pressure of the measurement (hPa),sample flow rate (lpm),inlet stack bypass flow (lpm),air temperature of the measurement (°C),ambient temperature measured by the external sensor (°C),aerosol sample conditioner tube jacket temperature (°C),OPC LED temperature (°C),internal box temperature (°C),relative humidity of the measurement (%),span deviation,mass concentration of particles derived from Lorenz-Mie calculation of OPC scattering (μg/m³),mass concentration of particles derived from Lorenz-Mie calculation of OPC scattering (μg/m³),mass concentration of particles derived from Lorenz-Mie calculation of OPC scattering (μg/m³)
DateTimeUTC,F1_M11,P_M11,Q1_M11,Q2_M11,T1_M11,T2_M11,T3_M11,T4_M11,T5_M11,U1_M11,ZSPAN_M11,X0_M11,X2_M11,X1_M11
2023-08-28 15:00:00,SystemResetWarning,0837.3,5.00,000.00,029.8,027.6,000.0,038.2,030.7,32.6,-000.1,0009.14,0004.78,0004.39
2023-08-28 15:01:00,SystemResetWarning,0837.4,5.00,000.00,029.8,027.6,000.0,038.2,030.7,32.3,0000.3,0009.11,0004.78,0004.38
2023-08-28 15:02:00,SystemResetWarning,0837.4,5.00,000.00,029.8,027.3,000.0,038.1,030.7,32.3,0000.2,0009.14,0004.77,0004.37
2023-08-28 15:03:00,SystemResetWarning,0837.3,5.00,000.00,029.7,025.8,000.0,038.0,030.5,32.8,0000.1,0009.66,0004.71,0004.33
2023-08-28 15:04:00,SystemResetWarning,0837.2,5.00,000.00,029.7,024.9,000.0,037.8,030.3,33.4,0000.1,0009.71,0004.68,0004.31
2023-08-28 15:05:00,SystemResetWarning,0837.2,5.00,000.00,029.5,024.9,000.0,037.8,030.1,32.8,0000.0,0009.79,0004.66,0004.28
2023-08-28 15:06:00,SystemResetWarning,0837.2,5.01,000.00,029.4,025.2,000.0,037.9,030.0,32.5,-000.0,0009.72,0004.63,0004.26
2023-08-28 15:07:00,SystemResetWarning,0837.2,5.00,000.00,029.3,025.5,000.0,037.9,030.1,32.8,0000.4,0009.71,0004.61,0004.23
2023-08-28 15:08:00,SystemResetWarning,0837.4,5.00,000.00,029.3,025.9,000.0,037.9,030.2,33.5,0000.5,0009.02,0004.58,0004.21
2023-08-28 15:09:00,SystemResetWarning,0837.4,5.00,000.00,029.3,026.2,000.0,037.9,030.2,33.3,0000.7,0008.62,0004.53,0004.19
2023-08-28 15:10:00,SystemResetWarning,0837.4,4.99,000.00,029.2,026.5,000.0,037.8,030.3,32.7,0000.8,0008.56,0004.52,0004.17
2023-08-28 15:11:00,SystemResetWarning,0837.4,5.00,000.00,029.2,026.7,000.0,037.8,030.3,33.2,0001.1,0008.13,0004.49,0004.17
2023-08-28 15:12:00,SystemResetWarning,0837.4,4.99,000.00,029.2,026.9,000.0,037.8,030.4,33.7,0000.9,0008.16,0004.47,0004.16
2023-08-28 15:13:00,SystemResetWarning,0837.4,5.00,000.00,029.3,027.1,000.0,037.8,030.4,33.5,0000.8,0008.43,0004.44,0004.15
2023-08-28 15:14:00,SystemResetWarning,0837.4,5.01,000.00,029.3,027.3,000.0,037.8,030.5,33.8,0000.4,0008.08,0004.46,0004.14
2023-08-28 15:15:00,SystemResetWarning,0837.5,5.01,000.00,029.3,027.4,000.0,037.8,030.5,33.5,0000.5,0007.60,0004.46,0004.13
2023-08-28 15:16:00,SystemResetWarning,0837.4,4.98,000.00,029.3,026.9,000.0,037.7,030.5,32.6,0000.0,0007.98,0004.47,0004.12
2023-08-28 15:17:00,SystemResetWarning,0837.5,5.00,000.00,029.2,025.5,000.0,037.6,030.2,32.7,0000.0,0008.00,0004.47,0004.11
2023-08-28 15:18:00,SystemResetWarning,0837.5,5.01,000.00,029.2,024.8,000.0,037.5,030.1,32.9,0000.0,0007.95,0004.45,0004.11
2023-08-28 15:19:00,SystemResetWarning,0837.5,5.00,000.00,029.1,024.8,000.0,037.4,029.9,33.5,0000.0,0007.90,0004.43,0004.11
2023-08-28 15:20:00,SystemResetWarning,0837.5,5.01,000.00,028.9,025.1,000.0,037.5,029.8,33.7,0000.0,0008.03,0004.44,0004.10
2023-08-28 15:21:00,SystemResetWarning,0837.5,4.99,000.00,028.9,025.5,000.0,037.5,029.9,34.0,0000.0,0008.06,0004.42,0004.09
2023-08-28 15:22:00,SystemResetWarning,0837.6,4.99,000.00,028.9,025.9,000.0,037.5,030.0,34.8,0000.0,0008.14,0004.44,0004.08
2023-08-28 15:23:00,SystemResetWarning,0837.6,5.02,000.00,028.9,026.2,000.0,037.5,030.1,35.2,0000.0,0008.13,0004.45,0004.09
2023-08-28 15:24:00,SystemResetWarning,0837.6,4.99,000.00,029.1,026.5,000.0,037.5,030.3,34.5,0000.0,0007.83,0004.45,0004.09
2023-08-28 15:25:00,SystemResetWarning,0837.7,5.03,000.00,029.3,026.7,000.0,037.5,030.4,34.9,0000.0,0007.65,0004.43,0004.10
2023-08-28 15:26:00,SystemResetWarning,0837.7,4.97,000.00,029.5,026.9,000.0,037.5,030.5,34.0,0000.0,0007.61,0004.43,0004.11
2023-08-28 15:27:00,SystemResetWarning,0837.7,5.01,000.00,029.6,027.1,000.0,037.6,030.5,33.8,0000.0,0007.39,0004.42,0004.10
2023-08-28 15:28:00,SystemResetWarning,0837.7,5.00,000.00,029.7,027.3,000.0,037.6,030.5,33.6,0000.0,0007.31,0004.41,0004.09
2023-08-28 15:29:00,SystemResetWarning,0837.6,4.98,000.00,029.8,026.5,000.0,037.6,030.4,33.7,0000.0,0007.40,0004.44,0004.09
2023-08-28 15:30:00,SystemResetWarning,0837.7,5.02,000.00,029.8,025.0,000.0,037.5,030.1,33.0,0000.0,0007.46,0004.46,0004.10
2023-08-28 15:31:00,SystemResetWarning,0837.6,5.01,000.00,029.7,024.5,000.0,037.4,030.0,31.3,0000.0,0007.61,0004.46,0004.10
2023-08-28 15:32:00,SystemResetWarning,0837.7,5.00,000.00,029.6,024.6,000.0,037.5,029.8,31.0,0000.0,0007.79,0004.47,0004.09
2023-08-28 15:33:00,SystemResetWarning,0837.7,5.00,000.00,029.5,025.0,000.0,037.5,029.8,31.2,0000.0,0007.75,0004.44,0004.09
2023-08-28 15:34:00,SystemResetWarning,0837.7,4.99,000.00,029.4,025.4,000.0,037.6,029.9,31.1,0000.0,0007.69,0004.43,0004.07
2023-08-28 15:35:00,SystemResetWarning,0837.7,5.01,000.00,029.4,025.8,000.0,037.6,030.0,31.0,0000.0,0007.71,0004.42,0004.04
2023-08-28 15:36:00,SystemResetWarning,0837.7,5.00,000.00,029.4,026.2,000.0,037.6,030.1,32.3,0000.0,0007.73,0004.39,0004.03
2023-08-28 15:37:00,SystemResetWarning,0837.7,4.99,000.00,029.4,026.4,000.0,037.7,030.2,34.1,0000.0,0007.69,0004.38,0004.02
2023-08-28 15:38:00,SystemResetWarning,0837.7,4.99,000.00,029.4,026.7,000.0,037.7,030.2,33.7,0000.0,0007.64,0004.36,0004.02
2023-08-28 15:39:00,SystemResetWarning,0837.8,5.00,000.00,029.4,026.9,000.0,037.7,030.3,33.6,0000.0,0007.66,0004.33,0004.01
2023-08-28 15:40:00,SystemResetWarning,0837.8,5.00,000.00,029.4,027.1,000.0,037.7,030.4,34.1,0000.0,0007.64,0004.30,0004.00
2023-08-28 15:41:00,SystemResetWarning,0837.8,5.00,000.00,029.4,027.2,000.0,037.7,030.4,34.7,0000.0,0007.68,0004.29,0003.98
2023-08-28 15:42:00,SystemResetWarning,0837.8,5.00,000.00,029.4,027.3,000.0,037.7,030.4,34.0,0000.0,0007.58,0004.26,0003.96
2023-08-28 15:43:00,SystemResetWarning,0837.8,4.99,000.00,029.4,026.2,000.0,037.6,030.2,33.1,0000.0,0007.04,0004.24,0003.96
2023-08-28 15:44:00,SystemResetWarning,0837.8,5.00,000.00,029.3,024.8,000.0,037.5,030.0,33.1,0000.0,0007.08,0004.23,0003.94
2023-08-28 15:45:00,SystemResetWarning,0837.8,4.99,000.00,029.2,024.4,000.0,037.4,029.8,33.6,0000.0,0007.20,0004.22,0003.94
2023-08-28 15:46:00,SystemResetWarning,0837.7,5.01,000.00,029.1,024.6,000.0,037.4,029.6,34.0,0000.0,0007.25,0004.21,0003.94
2023-08-28 15:47:00,SystemResetWarning,0837.8,5.01,000.00,029.0,025.0,000.0,037.4,029.7,33.5,0000.0,0007.64,0004.20,0003.94
2023-08-28 15:48:00,SystemResetWarning,0837.8,5.00,000.00,029.0,025.4,000.0,037.4,029.8,33.9,0000.0,0007.68,0004.21,0003.92
2023-08-28 15:49:00,SystemResetWarning,0837.8,5.00,000.00,028.9,025.8,000.0,037.4,029.9,33.3,0000.0,0007.61,0004.20,0003.92
2023-08-28 15:50:00,SystemResetWarning,0837.8,5.00,000.00,028.9,026.1,000.0,037.4,030.0,34.6,0000.0,0007.47,0004.21,0003.91
2023-08-28 15:51:00,SystemResetWarning,0837.8,4.99,000.00,029.0,026.4,000.0,037.4,030.1,35.0,0000.0,0007.43,0004.20,0003.92
2023-08-28 15:52:00,SystemResetWarning,0837.9,5.01,000.00,029.1,026.7,000.0,037.4,030.2,34.0,0000.0,0007.34,0004.19,0003.91
2023-08-28 15:53:00,SystemResetWarning,0837.9,4.99,000.00,029.2,026.9,000.0,037.4,030.3,33.4,0000.0,0007.33,0004.20,0003.92
2023-08-28 15:54:00,SystemResetWarning,0838.0,5.02,000.00,029.3,027.1,000.0,037.5,030.4,33.4,0000.0,0007.89,0004.26,0003.93
2023-08-28 15:55:00,SystemResetWarning,0838.0,5.00,000.00,029.4,027.2,000.0,037.5,030.4,32.7,0000.0,0008.14,0004.27,0003.94
2023-08-28 15:56:00,SystemResetWarning,0838.0,4.98,000.00,029.4,026.7,000.0,037.4,030.3,32.8,0000.0,0008.18,0004.30,0003.95
2023-08-28 15:57:00,SystemResetWarning,0838.0,5.00,000.00,029.4,025.1,000.0,037.3,030.1,32.8,0000.0,0008.11,0004.30,0003.95
2023-08-28 15:58:00,SystemResetWarning,0838.0,5.00,000.00,029.3,024.4,000.0,037.3,029.9,33.4,0000.0,0007.68,0004.29,0003.95
2023-08-28 15:59:00,SystemResetWarning,0838.0,5.00,000.00,029.2,024.4,000.0,037.3,029.6,33.8,0000.0,0008.19,0004.30,0003.96
